Regional Weather Roundup
Issued by NWS

Home | Current Version | Previous Version | Text Only | Print | Product List | Glossary Off
Versions: 1 2 3 4 5 6 7 8 9 10 11 12 13 14 15 16 17 18 19 20 21 22 23 24 25 26 27 28 29 30 31 32 33 34 35 36 37 38 39 40 41 42 43 44 45 46 47 48 49 50

000
ASUS43 KBIS 230910
RWRND

NORTH DAKOTA REGIONAL WEATHER ROUNDUP
NATIONAL WEATHER SERVICE BISMARCK ND
400 AM CDT WED JUL 23 2014

NOTE: "FAIR" INDICATES FEW OR NO CLOUDS BELOW 12,000 FEET WITH NO
SIGNIFICANT WEATHER AND/OR OBSTRUCTIONS TO VISIBILITY.


NDZ001>003-009>011-017-231000-
NORTHWEST NORTH DAKOTA

CITY           SKY/WX    TMP DP  RH WIND       PRES   REMARKS
WILLISTON      CLEAR     67  62  84 SE3       30.22F
MINOT          CLOUDY    65  63  93 CALM      30.25F
MINOT AFB      CLOUDY    65  64  99 E5        30.25F
$$

NDZ018>021-031>035-040>046-231000-
SOUTHWEST NORTH DAKOTA

CITY           SKY/WX    TMP DP  RH WIND       PRES   REMARKS
BISMARCK       MOCLDY    65  62  90 E5        30.25S
DICKINSON      PTCLDY    61  58  90 E5        30.23F
GARRISON         N/A     66  64  93 N6        30.28R
HETTINGER ARPT CLEAR     61  58  90 E5        30.25R
$$

NDZ004>008-012>016-024-026-027-054-231000-
NORTHEAST NORTH DAKOTA

CITY           SKY/WX    TMP DP  RH WIND       PRES   REMARKS
GRAND FORKS    MOCLDY    59  57  93 N7        30.26S
GRND FRKS AFB  PTCLDY    59  59  99 N7        30.27F
DEVILS LAKE    PTCLDY    63  55  77 NE6       30.28R
$$

NDZ022-023-025-028>030-036>039-047>053-231000-
SOUTHEAST NORTH DAKOTA

CITY           SKY/WX    TMP DP  RH WIND       PRES   REMARKS
FARGO          PTCLDY    58  55  90 CALM      30.25S
JAMESTOWN      PTCLDY    61  57  87 SE3       30.26F
$$



USA.gov is the U.S. government's official web portal to all federal, state and local government web resources and services.